Location: Poughquag
(41.6090°N, 73.6820°W)
Time: 09:52:32
(UTC-05:00)

Vanguard 3 - Pass Details

Date: 07 December 2023
Orbit: 508 x 3239 km, 33.4° (Epoch: 03 March)

Event Time Altitude Azimuth Distance (km) Brightness Sun altitude
Rises 17:35:55 0° 197° (SSW) 7,172 12.5 -13.0°
Reaches altitude 10° 17:43:17 10° 182° (S) 5,977 11.8 -14.3°
Maximum altitude 17:53:43 19° 146° (SE) 4,731 10.8 -16.2°
Enters shadow 18:01:47 11° 111° (ESE) 4,714 10.6 -17.6°
